• In Österreich
  • Länderverzeichnis
  • Für 7 Tage
  • Wassertemperatur
  • Satellitenkarten
  • Wetterkarte
  • News
  • Widgets
  • user-avatar
    Anmelden

    Stündliche Wetter Asfi

    Heute, 25 Juni, Montag

    Zeit Temperatur Niederschläge Wind Luftdruck Luftfeuchtigkeit
    00:00 +33°C° 0 mm 5 m/S 739 mmHg 33%
    01:00 +32°C° 0 mm 5 m/S 739 mmHg 37%
    02:00 +32°C° 0 mm 4 m/S 739 mmHg 37%
    03:00 +30°C° 0 mm 4 m/S 738 mmHg 38%
    04:00 +30°C° 0 mm 4 m/S 738 mmHg 38%
    05:00 +30°C° 0 mm 4 m/S 738 mmHg 36%
    06:00 +32°C° 0 mm 4 m/S 738 mmHg 34%
    07:00 +33°C° 0 mm 4 m/S 738 mmHg 31%
    08:00 +34°C° 0 mm 4 m/S 738 mmHg 27%
    09:00 +36°C° 0 mm 4 m/S 738 mmHg 23%
    10:00 +38°C° 0 mm 4 m/S 739 mmHg 18%
    11:00 +40°C° 0 mm 5 m/S 739 mmHg 18%
    12:00 +41°C° 0 mm 5 m/S 739 mmHg 17%
    13:00 +41°C° 0 mm 6 m/S 739 mmHg 17%
    14:00 +41°C° 0 mm 6 m/S 738 mmHg 18%
    15:00 +41°C° 0 mm 7 m/S 738 mmHg 18%
    16:00 +41°C° 0 mm 7 m/S 738 mmHg 19%
    17:00 +40°C° 0 mm 7 m/S 738 mmHg 21%
    18:00 +39°C° 0 mm 7 m/S 738 mmHg 24%
    19:00 +36°C° 0 mm 7 m/S 739 mmHg 27%
    20:00 +35°C° 0 mm 8 m/S 739 mmHg 32%
    21:00 +33°C° 0 mm 8 m/S 740 mmHg 37%
    22:00 +32°C° 0 mm 8 m/S 740 mmHg 42%
    23:00 +31°C° 0 mm 8 m/S 740 mmHg 44%

    Morgen, 26 Juni, Dienstag

    Zeit Temperatur Niederschläge Wind Luftdruck Luftfeuchtigkeit
    00:00 +29°C° 0 mm 8 m/S 740 mmHg 45%
    01:00 +28°C° 0 mm 8 m/S 740 mmHg 46%
    02:00 +27°C° 0 mm 7 m/S 740 mmHg 47%
    03:00 +27°C° 0 mm 6 m/S 740 mmHg 48%
    04:00 +26°C° 0 mm 4 m/S 740 mmHg 48%
    05:00 +26°C° 0 mm 4 m/S 740 mmHg 48%
    06:00 +26°C° 0 mm 4 m/S 740 mmHg 48%
    07:00 +26°C° 0 mm 4 m/S 740 mmHg 48%
    08:00 +28°C° 0 mm 5 m/S 741 mmHg 43%
    09:00 +29°C° 0 mm 5 m/S 741 mmHg 38%
    10:00 +32°C° 0 mm 5 m/S 741 mmHg 33%
    11:00 +33°C° 0 mm 5 m/S 741 mmHg 30%
    12:00 +34°C° 0 mm 4 m/S 741 mmHg 27%
    13:00 +35°C° 0 mm 4 m/S 741 mmHg 23%
    14:00 +36°C° 0 mm 5 m/S 741 mmHg 21%
    15:00 +36°C° 0 mm 5 m/S 740 mmHg 19%
    16:00 +37°C° 0 mm 5 m/S 740 mmHg 17%
    17:00 +36°C° 0 mm 6 m/S 740 mmHg 18%
    18:00 +35°C° 0 mm 6 m/S 740 mmHg 18%
    19:00 +34°C° 0 mm 6 m/S 740 mmHg 19%
    20:00 +33°C° 0 mm 6 m/S 740 mmHg 22%
    21:00 +32°C° 0 mm 5 m/S 741 mmHg 25%
    22:00 +30°C° 0 mm 5 m/S 741 mmHg 29%
    23:00 +29°C° 0 mm 5 m/S 741 mmHg 32%

    übermorgen, 27 Juni, Mittwoch

    Zeit Temperatur Niederschläge Wind Luftdruck Luftfeuchtigkeit
    00:00 +29°C° 0 mm 5 m/S 741 mmHg 34%
    01:00 +28°C° 0 mm 4 m/S 741 mmHg 37%
    02:00 +27°C° 0 mm 4 m/S 741 mmHg 38%
    03:00 +27°C° 0 mm 5 m/S 741 mmHg 38%
    04:00 +26°C° 0 mm 5 m/S 741 mmHg 39%
    05:00 +26°C° 0 mm 5 m/S 741 mmHg 39%
    06:00 +26°C° 0 mm 5 m/S 741 mmHg 39%
    07:00 +26°C° 0 mm 6 m/S 741 mmHg 38%
    08:00 +28°C° 0 mm 5 m/S 741 mmHg 36%
    09:00 +29°C° 0 mm 5 m/S 741 mmHg 33%
    10:00 +32°C° 0 mm 5 m/S 742 mmHg 30%
    11:00 +33°C° 0 mm 4 m/S 741 mmHg 28%
    12:00 +34°C° 0 mm 3 m/S 741 mmHg 26%
    13:00 +35°C° 0 mm 2 m/S 741 mmHg 24%
    14:00 +35°C° 0 mm 2 m/S 741 mmHg 23%
    15:00 +36°C° 0 mm 2 m/S 740 mmHg 21%
    16:00 +37°C° 0 mm 2 m/S 740 mmHg 20%
    17:00 +36°C° 0 mm 3 m/S 740 mmHg 20%
    18:00 +36°C° 0 mm 3 m/S 740 mmHg 20%
    19:00 +36°C° 0 mm 3 m/S 740 mmHg 20%
    20:00 +35°C° 0 mm 4 m/S 740 mmHg 21%
    21:00 +34°C° 0 mm 5 m/S 741 mmHg 22%
    22:00 +33°C° 0 mm 5 m/S 741 mmHg 24%
    23:00 +32°C° 0 mm 5 m/S 741 mmHg 26%

    28 Juni, Donnerstag

    Zeit Temperatur Niederschläge Wind Luftdruck Luftfeuchtigkeit
    00:00 +30°C° 0 mm 5 m/S 740 mmHg 28%
    01:00 +29°C° 0 mm 5 m/S 740 mmHg 30%
    02:00 +29°C° 0 mm 5 m/S 740 mmHg 31%
    03:00 +28°C° 0 mm 4 m/S 740 mmHg 31%
    04:00 +28°C° 0 mm 4 m/S 740 mmHg 32%
    05:00 +28°C° 0 mm 4 m/S 740 mmHg 31%
    06:00 +28°C° 0 mm 4 m/S 740 mmHg 30%
    07:00 +29°C° 0 mm 5 m/S 740 mmHg 29%
    08:00 +32°C° 0 mm 5 m/S 740 mmHg 26%
    09:00 +33°C° 0 mm 5 m/S 740 mmHg 23%
    10:00 +35°C° 0 mm 5 m/S 740 mmHg 20%
    11:00 +36°C° 0 mm 4 m/S 740 mmHg 18%
    12:00 +38°C° 0 mm 3 m/S 740 mmHg 16%
    13:00 +39°C° 0 mm 3 m/S 739 mmHg 14%
    14:00 +39°C° 0 mm 2 m/S 739 mmHg 14%
    15:00 +40°C° 0 mm 1 m/S 739 mmHg 13%
    16:00 +37°C° 0 mm 0 m/S 739 mmHg 13%
    17:00 +40°C° 0 mm 1 m/S 739 mmHg 13%
    18:00 +40°C° 0 mm 1 m/S 738 mmHg 13%
    19:00 +40°C° 0 mm 1 m/S 738 mmHg 13%
    20:00 +39°C° 0 mm 1 m/S 739 mmHg 14%
    21:00 +38°C° 0 mm 2 m/S 739 mmHg 15%
    22:00 +37°C° 0 mm 2 m/S 739 mmHg 15%
    23:00 +36°C° 0 mm 3 m/S 739 mmHg 16%

    29 Juni, Freitag

    Zeit Temperatur Niederschläge Wind Luftdruck Luftfeuchtigkeit
    00:00 +36°C° 0 mm 3 m/S 739 mmHg 16%
    01:00 +35°C° 0 mm 3 m/S 738 mmHg 16%
    02:00 +35°C° 0 mm 3 m/S 738 mmHg 16%
    03:00 +34°C° 0 mm 4 m/S 738 mmHg 17%
    04:00 +34°C° 0 mm 4 m/S 737 mmHg 17%
    05:00 +34°C° 0 mm 4 m/S 738 mmHg 16%
    06:00 +35°C° 0 mm 5 m/S 738 mmHg 15%
    07:00 +35°C° 0 mm 5 m/S 738 mmHg 15%
    08:00 +38°C° 0 mm 6 m/S 738 mmHg 13%
    09:00 +40°C° 0 mm 6 m/S 739 mmHg 11%
    10:00 +43°C° 0 mm 7 m/S 739 mmHg 10%
    11:00 +44°C° 0 mm 6 m/S 739 mmHg 10%
    12:00 +45°C° 0 mm 6 m/S 738 mmHg 9%
    13:00 +46°C° 0 mm 5 m/S 738 mmHg 9%
    14:00 +47°C° 0 mm 4 m/S 738 mmHg 9%
    15:00 +46°C° 0 mm 3 m/S 738 mmHg 9%
    16:00 +46°C° 0 mm 2 m/S 738 mmHg 8%
    17:00 +46°C° 0 mm 2 m/S 738 mmHg 9%
    18:00 +44°C° 0 mm 1 m/S 738 mmHg 9%
    19:00 +43°C° 0 mm 1 m/S 738 mmHg 9%
    20:00 +42°C° 0 mm 2 m/S 738 mmHg 10%
    21:00 +41°C° 0 mm 2 m/S 738 mmHg 10%
    22:00 +40°C° 0 mm 3 m/S 739 mmHg 11%
    23:00 +40°C° 0 mm 3 m/S 738 mmHg 11%

    30 Juni, Samstag

    Zeit Temperatur Niederschläge Wind Luftdruck Luftfeuchtigkeit
    00:00 +39°C° 0 mm 3 m/S 738 mmHg 12%
    01:00 +38°C° 0 mm 3 m/S 738 mmHg 12%
    02:00 +38°C° 0 mm 4 m/S 738 mmHg 13%
    03:00 +37°C° 0 mm 4 m/S 738 mmHg 13%
    04:00 +37°C° 0 mm 4 m/S 738 mmHg 13%
    05:00 +37°C° 0 mm 4 m/S 738 mmHg 13%
    06:00 +37°C° 0 mm 4 m/S 738 mmHg 13%
    07:00 +39°C° 0 mm 5 m/S 738 mmHg 12%
    08:00 +41°C° 0 mm 5 m/S 739 mmHg 11%
    09:00 +44°C° 0 mm 6 m/S 739 mmHg 9%
    10:00 +47°C° 0 mm 7 m/S 739 mmHg 7%
    11:00 +48°C° 0 mm 6 m/S 739 mmHg 7%
    12:00 +49°C° 0 mm 5 m/S 739 mmHg 7%
    13:00 +50°C° 0 mm 5 m/S 739 mmHg 6%
    14:00 +50°C° 0 mm 4 m/S 738 mmHg 6%
    15:00 +50°C° 0 mm 4 m/S 738 mmHg 6%
    16:00 +50°C° 0 mm 3 m/S 738 mmHg 6%
    17:00 +48°C° 0 mm 3 m/S 738 mmHg 6%
    18:00 +47°C° 0 mm 3 m/S 738 mmHg 6%
    19:00 +47°C° 0 mm 2 m/S 738 mmHg 6%
    20:00 +45°C° 0 mm 2 m/S 738 mmHg 7%
    21:00 +42°C° 0 mm 2 m/S 738 mmHg 8%
    22:00 +41°C° 0 mm 2 m/S 738 mmHg 8%
    23:00 +40°C° 0 mm 2 m/S 739 mmHg 9%
    Mehr zeigen